Weather History for Reading, PA

Change the Weather History Date:

Friday, January 17, 2014

  Actual Average Record
Temperature  
Mean Temperature 34 °F 29 °F  
Max Temperature 43 °F 37 °F 62 °F (1990)
Min Temperature 24 °F 21 °F -10 °F (1982)
Degree Days  
Heating Degree Days 31 36  
Month to date heating degree days 625 597  
Since 1 July heating degree days 2613 2628  
Cooling Degree Days 0 0  
Month to date cooling degree days 0 0  
Year to date cooling degree days 0 0  
Moisture  
Dew Point 24 °F    
Average Humidity 65    
Maximum Humidity 81    
Minimum Humidity 49    
Precipitation  
Precipitation 0.00 in 0.10 in 0.59 in (1952)
Month to date precipitation 3.14 1.82  
Year to date precipitation 3.14 1.82  
Sea Level Pressure  
Sea Level Pressure 29.93 in    
Wind  
Wind Speed 1 mph (NNW)    
Max Wind Speed 6 mph    
Max Gust Speed 9 mph    
Visibility 10 miles    
Events      
T = Trace of Precipitation, MM = Missing Value Source: NWS Daily Summary

Daily Weather History Graph

Daily Weather History Graph

Search for Another Location

Airport:

Trip Planner

Search our weather history database for the weather conditions in past years. The results will help you decide how hot, cold, wet, or windy it might be!

Date:

Astronomy

Jan. 17, 2014 Rise Set
Actual Time 7:23 AM EST 5:04 PM EST
Civil Twilight 6:54 AM EST 5:34 PM EST
Nautical Twilight 6:20 AM EST 6:07 PM EST
Astronomical Twilight 5:48 AM EST 6:40 PM EST
Moon 6:49 PM EST (1/17) 7:50 AM EST (1/17)
Length of Visible Light 10h 40m
Length of Day
9h 40m
Full, 98% of the Moon is Illuminated
Jan 17
Full
Jan 24
Last Quarter
Jan 30
New
Feb 6
First Quarter
Feb 14
Full

Hourly Weather History & Observations

Time (EST) Temp. Windchill Dew Point Humidity Pressure Visibility Wind Dir Wind Speed Gust Speed Precip Events Conditions
12:54 AM 24.1 °F - 18.0 °F 77% 29.95 in 10.0 mi Calm Calm - N/A   Clear
1:54 AM 25.0 °F - 18.0 °F 75% 29.94 in 10.0 mi Calm Calm - N/A   Scattered Clouds
2:54 AM 27.0 °F - 21.9 °F 81% 29.94 in 8.0 mi Calm Calm - N/A   Overcast
3:54 AM 26.1 °F - 21.9 °F 84% 29.94 in 10.0 mi Calm Calm - N/A   Overcast
4:54 AM 24.1 °F 18.2 °F 19.9 °F 84% 29.93 in 10.0 mi NNW 4.6 mph - N/A   Scattered Clouds
5:54 AM 27.0 °F - 21.0 °F 78% 29.92 in 10.0 mi Calm Calm - N/A   Overcast
6:54 AM 27.0 °F - 21.0 °F 78% 29.95 in 10.0 mi Calm Calm - N/A   Overcast
8:54 AM 30.9 °F - 24.1 °F 76% 29.97 in 8.0 mi Calm Calm - N/A   Scattered Clouds
9:54 AM 34.0 °F - 25.0 °F 70% 29.98 in 10.0 mi Calm Calm - N/A   Clear
10:54 AM 37.0 °F - 25.0 °F 62% 29.97 in 10.0 mi Calm Calm - N/A   Clear
11:54 AM 37.9 °F - 25.0 °F 60% 29.95 in 10.0 mi Calm Calm - N/A   Clear
12:54 PM 42.1 °F - 26.1 °F 53% 29.93 in 10.0 mi Calm Calm - N/A   Clear
1:54 PM 43.0 °F 40.3 °F 25.0 °F 49% 29.92 in 10.0 mi SSW 4.6 mph - N/A   Mostly Cloudy
2:54 PM 43.0 °F 41.3 °F 25.0 °F 49% 29.91 in 10.0 mi South 3.5 mph - N/A   Partly Cloudy
3:54 PM 42.1 °F - 26.1 °F 53% 29.91 in 10.0 mi Calm Calm - N/A   Clear
4:54 PM 41.0 °F - 25.0 °F 53% 29.92 in 10.0 mi Calm Calm - N/A   Clear
5:54 PM 39.0 °F - 26.1 °F 60% 29.93 in 10.0 mi Calm Calm - N/A   Clear
6:54 PM 37.9 °F 35.5 °F 26.1 °F 62% 29.94 in 10.0 mi East 3.5 mph - N/A   Clear
7:54 PM 34.0 °F - 25.0 °F 70% 29.93 in 10.0 mi Calm Calm - N/A   Clear
8:54 PM 33.1 °F 30.0 °F 25.0 °F 72% 29.93 in 10.0 mi North 3.5 mph - N/A   Clear
9:54 PM 32.0 °F 28.7 °F 26.1 °F 79% 29.92 in 10.0 mi NNW 3.5 mph - N/A   Clear
10:54 PM 32.0 °F - 25.0 °F 75% 29.88 in 9.0 mi Calm Calm - N/A   Clear
11:54 PM 30.9 °F 27.5 °F 25.0 °F 79% 29.86 in 9.0 mi North 3.5 mph - N/A   Clear